Location: Alexandria
(38.8050°N, 77.0470°W)
Time: 19:43:58
(UTC-05:00)

OTV 5 (USA 277) - Visible Passes

Search period start: 11 December 2017 00:00
Search period end: 21 December 2017 00:00
Orbit: 404 x 417 km, 43.0° (Epoch: 07 September)

Date Brightness Start Highest point End Pass type
(mag) Time Alt. Az. Time Alt. Az. Time Alt. Az.
11 Dec ? 18:19:02 10° WNW 18:22:23 57° NNE 18:22:39 55° NE visible
12 Dec ? 17:27:58 10° WNW 17:31:15 47° N 17:34:15 12° E visible
12 Dec ? 19:05:20 10° WNW 19:07:02 26° W 19:07:02 26° W visible
13 Dec ? 18:14:12 10° WNW 18:17:35 76° SSW 18:18:47 37° SE visible
14 Dec ? 17:23:07 10° WNW 17:26:31 77° NNE 17:29:53 10° ESE visible
14 Dec ? 19:00:55 10° W 19:03:33 22° SW 19:03:33 22° SW visible
15 Dec ? 18:09:33 10° W 18:12:38 33° SSW 18:15:42 10° SE visible
16 Dec ? 17:18:21 10° WNW 17:21:39 50° SSW 17:24:55 10° SE visible
17 Dec ? 18:05:40 10° WSW 18:07:31 14° SW 18:09:22 10° S visible
18 Dec ? 17:13:57 10° W 17:16:36 22° SW 17:19:15 10° SSE visible
